Location: 22
(39.7117°N, 89.5929°W)
Time: 09:36:40
(UTC-05:00)

ARIANE 6 FM1 Upper Stage - Visible Passes

Search period start: 11 April 2026 00:00
Search period end: 21 April 2026 00:00
Orbit: 524 x 604 km, 62.0° (Epoch: 11 April)

Date Brightness Start Highest point End Pass type
(mag) Time Alt. Az. Time Alt. Az. Time Alt. Az.
11 Apr 4.2 04:03:01 10° NNW 04:06:38 33° NE 04:10:14 10° ESE visible
11 Apr 3.7 05:42:20 10° WNW 05:45:26 22° WSW 05:48:31 10° SSW visible
11 Apr 5.5 21:19:55 10° W 21:22:52 19° NW 21:25:47 10° N visible
12 Apr 3.4 04:02:28 10° NNW 04:06:19 48° NE 04:10:10 10° SE visible
12 Apr 4.2 05:42:41 10° W 05:44:54 15° WSW 05:47:08 10° SSW visible
12 Apr 5.7 21:20:28 10° WNW 21:22:40 14° NW 21:24:52 10° N visible
13 Apr 5.2 04:09:47 11° SE 04:09:47 11° SE 04:09:55 10° SE visible
13 Apr 6.0 21:21:40 10° NW 21:22:31 11° NW 21:23:22 10° NNW visible
